When you browse on this site, cookies collect data to enhance your experience and personalize the content and advertising you see.
Visit our Privacy Policy to learn more. By continuing to use the site, you agree to this use of cookies and data.
  • In Germany
  • List of Countries
  • For 7 days
  • Water Temperature
  • Weather Map
  • Weather Widgets
  • user-avatar
    Login

    Hourly Weather Malanville

    Today, 31 May, Sunday

    Time Temperature Precipitation Wind Pressure Humidity
    00:00 +34°C° 0 mm 5 mps 743 mmHg 53%
    01:00 +33°C° 0 mm 5 mps 742 mmHg 55%
    02:00 +33°C° 0 mm 6 mps 742 mmHg 57%
    03:00 +32°C° 0 mm 6 mps 742 mmHg 59%
    04:00 +32°C° 0 mm 6 mps 742 mmHg 62%
    05:00 +30°C° 0 mm 6 mps 743 mmHg 65%
    06:00 +30°C° 0 mm 6 mps 743 mmHg 67%
    07:00 +32°C° 0 mm 5 mps 744 mmHg 64%
    08:00 +33°C° 0 mm 5 mps 744 mmHg 61%
    09:00 +34°C° 0 mm 5 mps 744 mmHg 58%
    10:00 +35°C° 0 mm 5 mps 744 mmHg 52%
    11:00 +37°C° 0 mm 4 mps 744 mmHg 46%
    12:00 +38°C° 0 mm 4 mps 744 mmHg 41%
    13:00 +40°C° 0 mm 4 mps 743 mmHg 39%
    14:00 +39°C° 0 mm 3 mps 743 mmHg 36%
    15:00 +40°C° 0 mm 3 mps 742 mmHg 34%
    16:00 +39°C° 0 mm 2 mps 742 mmHg 34%
    17:00 +39°C° 0 mm 2 mps 742 mmHg 35%
    18:00 +39°C° 0 mm 1 mps 742 mmHg 36%
    19:00 +38°C° 0 mm 2 mps 743 mmHg 38%
    20:00 +37°C° 0 mm 2 mps 743 mmHg 40%
    21:00 +36°C° 0 mm 2 mps 743 mmHg 42%
    22:00 +36°C° 0 mm 2 mps 743 mmHg 44%
    23:00 +36°C° 0 mm 2 mps 743 mmHg 46%

    Tomorrow, 1 June, Monday

    Time Temperature Precipitation Wind Pressure Humidity
    00:00 +35°C° 0 mm 2 mps 743 mmHg 47%
    01:00 +34°C° 0 mm 3 mps 743 mmHg 50%
    02:00 +34°C° 0 mm 3 mps 743 mmHg 53%
    03:00 +33°C° 0 mm 4 mps 742 mmHg 56%
    04:00 +33°C° 0 mm 4 mps 743 mmHg 57%
    05:00 +33°C° 0 mm 4 mps 743 mmHg 58%
    06:00 +33°C° 0 mm 4 mps 743 mmHg 59%
    07:00 +34°C° 0 mm 4 mps 744 mmHg 54%
    08:00 +36°C° 0 mm 4 mps 744 mmHg 49%
    09:00 +37°C° 0 mm 4 mps 745 mmHg 44%
    10:00 +38°C° 0 mm 3 mps 744 mmHg 40%
    11:00 +40°C° 0 mm 3 mps 744 mmHg 36%
    12:00 +41°C° 0 mm 2 mps 744 mmHg 31%
    13:00 +42°C° 0 mm 2 mps 743 mmHg 29%
    14:00 +42°C° 0 mm 1 mps 742 mmHg 27%
    15:00 +43°C° 0 mm 1 mps 741 mmHg 25%
    16:00 +42°C° 0 mm 1 mps 741 mmHg 26%
    17:00 +42°C° 0 mm 1 mps 741 mmHg 27%
    18:00 +41°C° 0 mm 2 mps 741 mmHg 29%
    19:00 +40°C° 0 mm 3 mps 741 mmHg 33%
    20:00 +39°C° 0 mm 3 mps 742 mmHg 37%
    21:00 +37°C° 0 mm 4 mps 743 mmHg 41%
    22:00 +36°C° 0 mm 4 mps 743 mmHg 44%
    23:00 +35°C° 0 mm 5 mps 742 mmHg 47%

    Day after tomorrow, 2 June, Tuesday

    Time Temperature Precipitation Wind Pressure Humidity
    00:00 +34°C° 0 mm 5 mps 742 mmHg 50%
    01:00 +33°C° 0 mm 5 mps 742 mmHg 53%
    02:00 +33°C° 0 mm 5 mps 742 mmHg 55%
    03:00 +32°C° 0 mm 5 mps 742 mmHg 58%
    04:00 +32°C° 0 mm 5 mps 743 mmHg 60%
    05:00 +32°C° 0 mm 5 mps 743 mmHg 62%
    06:00 +30°C° 0 mm 5 mps 743 mmHg 64%
    07:00 +33°C° 0 mm 5 mps 744 mmHg 60%
    08:00 +34°C° 0 mm 5 mps 744 mmHg 55%
    09:00 +36°C° 0 mm 5 mps 744 mmHg 51%
    10:00 +37°C° 0 mm 5 mps 744 mmHg 45%
    11:00 +40°C° 0 mm 4 mps 743 mmHg 39%
    12:00 +41°C° 0 mm 4 mps 743 mmHg 33%
    13:00 +42°C° 0 mm 3 mps 742 mmHg 31%
    14:00 +42°C° 0 mm 2 mps 741 mmHg 28%
    15:00 +43°C° 0 mm 1 mps 741 mmHg 26%
    16:00 +42°C° 0 mm 2 mps 741 mmHg 27%
    17:00 +42°C° 0 mm 2 mps 740 mmHg 28%
    18:00 +41°C° 0 mm 2 mps 740 mmHg 29%
    19:00 +40°C° 0.1 mm 3 mps 741 mmHg 33%
    20:00 +39°C° 0.1 mm 3 mps 741 mmHg 37%
    21:00 +37°C° 0.1 mm 4 mps 742 mmHg 41%
    22:00 +37°C° 0 mm 4 mps 742 mmHg 44%
    23:00 +36°C° 0 mm 4 mps 742 mmHg 46%

    3 June, Wednesday

    Time Temperature Precipitation Wind Pressure Humidity
    00:00 +35°C° 0 mm 5 mps 742 mmHg 49%
    01:00 +35°C° 0 mm 5 mps 742 mmHg 53%
    02:00 +34°C° 0 mm 6 mps 741 mmHg 57%
    03:00 +33°C° 0 mm 6 mps 741 mmHg 61%
    04:00 +32°C° 0 mm 6 mps 741 mmHg 63%
    05:00 +32°C° 0 mm 6 mps 741 mmHg 65%
    06:00 +32°C° 0 mm 5 mps 742 mmHg 67%
    07:00 +33°C° 0 mm 5 mps 742 mmHg 61%
    08:00 +35°C° 0 mm 5 mps 742 mmHg 55%
    09:00 +36°C° 0 mm 5 mps 743 mmHg 49%
    10:00 +38°C° 0 mm 4 mps 742 mmHg 44%
    11:00 +41°C° 0 mm 4 mps 742 mmHg 38%
    12:00 +43°C° 0 mm 3 mps 741 mmHg 33%
    13:00 +43°C° 0 mm 3 mps 741 mmHg 30%
    14:00 +43°C° 0 mm 2 mps 740 mmHg 27%
    15:00 +44°C° 0 mm 1 mps 739 mmHg 24%
    16:00 +43°C° 0 mm 2 mps 739 mmHg 25%
    17:00 +43°C° 0 mm 2 mps 739 mmHg 26%
    18:00 +43°C° 0 mm 3 mps 739 mmHg 27%
    19:00 +42°C° 0 mm 3 mps 740 mmHg 30%
    20:00 +41°C° 0 mm 4 mps 740 mmHg 33%
    21:00 +40°C° 0 mm 4 mps 741 mmHg 36%
    22:00 +37°C° 1.7 mm 5 mps 741 mmHg 44%
    23:00 +35°C° 1.7 mm 5 mps 742 mmHg 51%

    4 June, Thursday

    Time Temperature Precipitation Wind Pressure Humidity
    00:00 +33°C° 1.7 mm 5 mps 742 mmHg 59%
    01:00 +33°C° 4.1 mm 5 mps 742 mmHg 64%
    02:00 +32°C° 4.1 mm 4 mps 742 mmHg 69%
    03:00 +30°C° 4.1 mm 4 mps 742 mmHg 74%
    04:00 +30°C° 0 mm 4 mps 742 mmHg 74%
    05:00 +30°C° 0 mm 5 mps 742 mmHg 74%
    06:00 +30°C° 0 mm 5 mps 742 mmHg 74%
    07:00 +32°C° 0 mm 5 mps 743 mmHg 69%
    08:00 +33°C° 0 mm 5 mps 743 mmHg 64%
    09:00 +33°C° 0 mm 5 mps 743 mmHg 59%
    10:00 +35°C° 0 mm 5 mps 743 mmHg 56%
    11:00 +36°C° 0 mm 5 mps 742 mmHg 52%
    12:00 +39°C° 0 mm 6 mps 742 mmHg 48%
    13:00 +39°C° 0 mm 5 mps 742 mmHg 46%
    14:00 +40°C° 0 mm 4 mps 741 mmHg 44%
    15:00 +40°C° 0 mm 4 mps 741 mmHg 42%
    16:00 +40°C° 0 mm 4 mps 741 mmHg 45%
    17:00 +38°C° 0 mm 4 mps 741 mmHg 47%
    18:00 +37°C° 0 mm 4 mps 741 mmHg 50%
    19:00 +36°C° 0.2 mm 4 mps 741 mmHg 53%
    20:00 +36°C° 0.2 mm 4 mps 742 mmHg 55%
    21:00 +35°C° 0.2 mm 4 mps 742 mmHg 58%
    22:00 +34°C° 0.1 mm 4 mps 742 mmHg 60%
    23:00 +34°C° 0.1 mm 4 mps 742 mmHg 61%

    5 June, Friday

    Time Temperature Precipitation Wind Pressure Humidity
    00:00 +34°C° 0.1 mm 4 mps 742 mmHg 63%
    01:00 +33°C° 0 mm 4 mps 743 mmHg 64%
    02:00 +33°C° 0 mm 3 mps 743 mmHg 66%
    03:00 +33°C° 0 mm 3 mps 743 mmHg 68%
    04:00 +31°C° 0 mm 3 mps 743 mmHg 68%
    05:00 +31°C° 0 mm 2 mps 743 mmHg 69%
    06:00 +31°C° 0 mm 2 mps 744 mmHg 70%
    07:00 +31°C° 1.4 mm 2 mps 744 mmHg 68%
    08:00 +30°C° 1.4 mm 2 mps 744 mmHg 66%
    09:00 +29°C° 1.4 mm 3 mps 745 mmHg 65%
    10:00 +33°C° 0 mm 3 mps 744 mmHg 58%
    11:00 +35°C° 0 mm 4 mps 744 mmHg 52%
    12:00 +37°C° 0 mm 5 mps 743 mmHg 45%
    13:00 +37°C° 0 mm 4 mps 743 mmHg 44%
    14:00 +38°C° 0 mm 3 mps 742 mmHg 44%
    15:00 +38°C° 0 mm 3 mps 742 mmHg 43%
    16:00 +38°C° 0 mm 2 mps 742 mmHg 44%
    17:00 +37°C° 0 mm 2 mps 742 mmHg 45%
    18:00 +37°C° 0 mm 2 mps 742 mmHg 47%
    19:00 +36°C° 0 mm 2 mps 742 mmHg 48%
    20:00 +35°C° 0 mm 2 mps 742 mmHg 50%
    21:00 +35°C° 0 mm 2 mps 743 mmHg 52%
    22:00 +34°C° 0 mm 2 mps 743 mmHg 53%
    23:00 +34°C° 0 mm 2 mps 743 mmHg 55%
    Show more